Orbital Elements at Epoch 2459000.5 (2020-May-31.0) TDB
Reference: JPL 18 (heliocentric ecliptic J2000)
Element | Value | Uncertainty (1-sigma) | Units |
e | .06528899657245164 | 5.3683e-08 | |
a | 2.206368027823375 | 1.4636e-08 | au |
q | 2.062316473217248 | 1.2545e-07 | au |
i | 6.243199495016724 | 4.0536e-06 | deg |
node | 250.712557424564 | 4.6637e-05 | deg |
peri | 250.9326355355657 | 5.6911e-05 | deg |
M | 223.2721216119788 | 3.3215e-05 | deg |
tp | 2459455.142398664827 (2021-Aug-28.64239866) | 0.00011145 | TDB |
period | 1197.058459832557 3.28 | 1.1911e-05 3.261e-08 | d yr |
n | .3007371921086932 | 2.9924e-09 | deg/d |
Q | 2.350419582429502 | 1.5592e-08 | au |
|
| | Orbit Determination Parameters
Additional Information
|